Date,TemperatureHighF,TemperatureAvgF,TemperatureLowF,DewpointHighF,DewpointAvgF,DewpointLowF,HumidityHigh,HumidityAvg,HumidityLow,PressureMaxIn,PressureMinIn,WindSpeedMaxMPH,WindSpeedAvgMPH,GustSpeedMaxMPH,PrecipitationSumIn
2014-1-1,28,23,18,-100,-100,-100,0,0,100,0.00,40.00,16,8,0,0.00
2014-1-2,18,14,6,-100,-100,-100,0,0,100,0.00,40.00,18,12,0,0.00
2014-1-3,29,16,-3,-100,-100,-100,0,0,100,0.00,40.00,14,6,0,0.00
2014-1-4,43,32,23,-100,-100,-100,0,0,100,0.00,40.00,16,6,0,0.00
2014-1-5,22,14,1,-100,-100,-100,0,0,100,0.00,40.00,29,18,0,0.00
2014-1-6,-1,-5,-10,-100,-100,-100,0,0,100,0.00,40.00,14,6,0,0.00
2014-1-7,24,8,-5,-100,-100,-100,0,0,100,0.00,40.00,7,4,0,0.00
2014-1-8,21,16,10,-100,-100,-100,0,0,100,0.00,40.00,8,4,0,0.00
2014-1-9,32,22,17,-100,-100,-100,0,0,100,0.00,40.00,6,3,0,0.00
2014-1-10,46,38,31,-100,-100,-100,0,0,100,0.00,40.00,8,4,0,0.32
2014-1-11,47,38,31,-100,-100,-100,0,0,100,0.00,40.00,7,2,0,0.33
2014-1-12,61,44,28,-100,-100,-100,0,0,100,0.00,40.00,10,4,0,0.00
2014-1-13,50,42,30,-100,-100,-100,0,0,100,0.00,40.00,11,4,0,0.00
2014-1-14,42,35,27,-100,-100,-100,0,0,100,0.00,40.00,20,9,0,0.02
2014-1-15,29,23,18,-100,-100,-100,0,0,100,0.00,40.00,15,7,0,0.02
2014-1-16,44,35,18,-100,-100,-100,0,0,100,0.00,40.00,19,6,0,0.04
2014-1-17,23,17,11,-100,-100,-100,0,0,100,0.00,40.00,15,7,0,0.01
2014-1-18,42,29,17,-100,-100,-100,0,0,100,0.00,40.00,18,6,0,0.05
2014-1-19,53,36,21,-100,-100,-100,0,0,100,0.00,40.00,11,3,0,0.05
2014-1-20,49,41,35,-100,-100,-100,0,0,100,0.00,40.00,16,4,0,0.01
2014-1-21,33,14,9,-100,-100,-100,0,0,100,0.00,40.00,18,8,0,0.01
2014-1-22,29,19,9,-100,-100,-100,0,0,100,0.00,40.00,21,8,0,0.00
2014-1-23,12,7,-1,-100,-100,-100,0,0,100,0.00,40.00,18,8,0,0.00
2014-1-24,39,21,5,-100,-100,-100,0,0,100,0.00,40.00,6,2,0,0.00
2014-1-25,42,33,23,-100,-100,-100,0,0,100,0.00,40.00,19,8,0,0.00
2014-1-26,52,41,20,-100,-100,-100,0,0,100,0.00,40.00,27,7,0,0.00
2014-1-27,20,10,5,-100,-100,-100,0,0,100,0.00,40.00,23,12,0,0.00
2014-1-28,18,10,1,-100,-100,-100,0,0,100,0.00,40.00,8,3,0,0.00
2014-1-29,37,24,12,-100,-100,-100,0,0,100,0.00,40.00,6,3,0,0.00
2014-1-30,41,34,29,-100,-100,-100,0,0,100,0.00,40.00,11,3,0,0.00
2014-1-31,28,22,19,-100,-100,-100,0,0,100,0.00,40.00,9,4,0,0.00
2014-2-1,30,25,23,-100,-100,-100,0,0,100,0.00,40.00,4,0,0,0.00
2014-2-2,25,15,7,-100,-100,-100,0,0,100,0.00,40.00,0,0,0,0.00
2014-2-3,29,15,-1,-100,-100,-100,0,0,100,0.00,40.00,0,0,0,0.20
2014-2-4,23,20,15,-100,-100,-100,0,0,100,0.00,40.00,0,0,0,0.06
2014-2-5,20,14,6,-100,-100,-100,0,0,100,0.00,40.00,0,0,0,0.06
2014-2-6,13,4,-3,-100,-100,-100,0,0,100,0.00,40.00,3,0,0,0.00
2014-2-7,18,6,-11,-100,-100,-100,0,0,100,0.00,40.00,7,2,0,0.00
2014-2-8,28,21,14,-100,-100,-100,0,0,100,0.00,40.00,6,3,0,0.00
2014-2-9,26,20,10,-100,-100,-100,0,0,100,0.00,40.00,9,7,0,0.00
2014-2-10,12,5,-1,-100,-100,-100,0,0,100,0.00,40.00,10,6,0,0.00
2014-2-11,22,6,-9,-100,-100,-100,0,0,100,0.00,40.00,6,2,0,0.00
2014-2-12,37,17,1,-100,-100,-100,0,0,100,0.00,40.00,5,2,0,0.12
2014-2-13,44,29,9,-100,-100,-100,0,0,100,0.00,40.00,7,2,0,0.09
2014-2-14,26,21,14,-100,-100,-100,0,0,100,0.00,40.00,14,7,0,0.00
2014-2-15,28,19,8,-100,-100,-100,0,0,100,0.00,40.00,8,3,0,0.00
2014-2-16,33,28,24,-100,-100,-100,0,0,100,0.00,40.00,14,5,0,0.15
2014-2-17,45,34,26,-100,-100,-100,0,0,100,0.00,40.00,14,5,0,0.06
2014-2-18,62,49,40,-100,-100,-100,0,0,100,0.00,40.00,17,2,0,0.00
2014-2-19,49,44,37,-100,-100,-100,0,0,100,0.00,40.00,17,4,0,0.30
2014-2-20,68,45,37,-100,-100,-100,0,0,100,0.00,40.00,10,4,0,0.53
2014-2-21,53,40,30,-100,-100,-100,0,0,100,0.00,40.00,5,2,0,0.10
2014-2-22,47,38,32,-100,-100,-100,0,0,100,0.00,40.00,9,4,0,0.00
2014-2-23,33,28,24,-100,-100,-100,0,0,100,0.00,40.00,12,6,0,0.00
2014-2-24,29,27,24,-100,-100,-100,0,0,100,0.00,40.00,7,3,0,0.05
2014-2-25,27,22,16,-100,-100,-100,0,0,100,0.00,40.00,18,8,0,0.05
2014-2-26,27,17,6,-100,-100,-100,0,0,100,0.00,40.00,16,6,0,0.00
2014-2-27,26,19,13,-100,-100,-100,0,0,100,0.00,40.00,16,7,0,0.00
2014-2-28,46,30,14,-100,-100,-100,0,0,100,0.00,40.00,11,4,0,0.00
2014-3-1,42,27,17,-100,-100,-100,0,0,100,0.00,40.00,13,7,0,0.00
2014-3-2,16,8,3,-100,-100,-100,0,0,100,0.00,40.00,13,10,0,0.00
2014-3-3,23,9,-3,-100,-100,-100,0,0,100,0.00,40.00,10,4,0,0.00
2014-3-4,39,26,13,-100,-100,-100,0,0,100,0.00,40.00,7,3,0,0.00
2014-3-5,40,31,25,-100,-100,-100,0,0,100,0.00,40.00,9,4,0,0.00
2014-3-6,45,32,25,-100,-100,-100,0,0,100,0.00,40.00,6,3,0,0.00
2014-3-7,60,42,28,-100,-100,-100,0,0,100,0.00,40.00,10,3,0,0.00
2014-3-8,37,35,32,-100,-100,-100,0,0,100,0.00,40.00,11,7,0,0.05
2014-3-9,56,40,26,-100,-100,-100,0,0,100,0.00,40.00,7,2,0,0.01
2014-3-10,68,53,44,-100,-100,-100,0,0,100,0.00,40.00,6,2,0,0.63
2014-3-11,76,47,35,-100,-100,-100,0,0,100,0.00,40.00,19,4,0,0.23
2014-3-12,41,36,33,-100,-100,-100,0,0,100,0.00,40.00,25,15,0,0.36
2014-3-13,63,42,27,-100,-100,-100,0,0,100,0.00,40.00,8,3,0,0.01
2014-3-14,62,54,46,-100,-100,-100,0,0,100,0.00,40.00,14,4,0,0.00
2014-3-15,65,45,31,-100,-100,-100,0,0,100,0.00,40.00,10,3,0,0.00
2014-3-16,41,32,26,-100,-100,-100,0,0,100,0.00,40.00,20,14,0,0.00
2014-3-17,45,31,19,-100,-100,-100,0,0,100,0.00,40.00,11,3,0,0.00
2014-3-18,61,45,33,-100,-100,-100,0,0,100,0.00,40.00,11,6,0,0.00
2014-3-19,46,40,34,-100,-100,-100,0,0,100,0.00,40.00,13,7,0,0.09
2014-3-20,67,47,31,-100,-100,-100,0,0,100,0.00,40.00,7,-19,0,0.00
2014-3-21,69,50,36,-100,-100,-100,0,0,100,0.00,40.00,19,5,0,0.00
2014-3-22,46,37,34,-100,-100,-100,0,0,100,0.00,40.00,19,14,0,0.00
2014-3-23,38,31,26,-100,-100,-100,0,0,100,0.00,40.00,18,10,0,0.00
2014-3-24,42,34,24,-100,-100,-100,0,0,100,0.00,40.00,4,2,0,0.00
2014-3-25,36,32,25,-100,-100,-100,0,0,100,0.00,40.00,21,10,0,0.00
2014-3-26,52,37,23,-100,-100,-100,0,0,100,0.00,40.00,14,6,0,0.00
2014-3-27,58,50,41,-100,-100,-100,0,0,100,0.00,40.00,13,8,0,0.57
2014-3-28,47,42,40,-100,-100,-100,0,0,100,0.00,40.00,12,6,0,0.29
2014-3-29,47,40,36,-100,-100,-100,0,0,100,0.00,40.00,14,8,0,0.00
2014-3-30,67,48,31,-100,-100,-100,0,0,100,0.00,40.00,12,5,0,0.00
2014-3-31,69,59,48,-100,-100,-100,0,0,100,0.00,40.00,16,8,0,0.00
2014-4-1,59,48,35,-100,-100,-100,0,0,100,0.00,40.00,11,5,0,0.11
2014-4-2,53,48,44,-100,-100,-100,0,0,100,0.00,40.00,12,4,0,0.95
2014-4-3,61,51,46,-100,-100,-100,0,0,100,0.00,40.00,14,4,0,1.65
2014-4-4,61,44,39,-100,-100,-100,0,0,100,0.00,40.00,16,8,0,0.04
2014-4-5,59,45,35,-100,-100,-100,0,0,100,0.00,40.00,11,3,0,0.00
2014-4-6,59,48,38,-100,-100,-100,0,0,100,0.00,40.00,7,3,0,0.00
2014-4-7,61,51,45,-100,-100,-100,0,0,100,0.00,40.00,11,5,0,0.00
2014-4-8,59,53,47,-100,-100,-100,0,0,100,0.00,40.00,17,10,0,0.00
2014-4-9,68,55,40,-100,-100,-100,0,0,100,0.00,40.00,9,4,0,0.00
2014-4-10,71,62,53,-100,-100,-100,0,0,100,0.00,40.00,14,6,0,0.00
2014-4-11,74,57,42,-100,-100,-100,0,0,100,0.00,40.00,5,2,0,0.00
2014-4-12,84,68,54,-100,-100,-100,0,0,100,0.00,40.00,10,4,0,0.00
2014-4-13,73,68,59,-100,-100,-100,0,0,100,0.00,40.00,11,6,0,0.14
2014-4-14,58,41,36,-100,-100,-100,0,0,100,0.00,40.00,24,16,0,0.14
2014-4-15,50,39,30,-100,-100,-100,0,0,100,0.00,40.00,11,6,0,0.02
2014-4-16,61,50,39,-100,-100,-100,0,0,100,0.00,40.00,15,9,0,0.00
2014-4-17,53,50,44,-100,-100,-100,0,0,100,0.00,40.00,11,6,0,0.00
2014-4-18,73,53,41,-100,-100,-100,0,0,100,0.00,40.00,6,2,0,0.00
2014-4-19,71,59,48,-100,-100,-100,0,0,100,0.00,40.00,8,4,0,0.00
2014-4-20,82,70,55,-100,-100,-100,0,0,100,0.00,40.00,7,3,0,0.00
2014-4-21,71,65,59,-100,-100,-100,0,0,100,0.00,40.00,11,3,0,0.00
2014-4-22,65,57,50,-100,-100,-100,0,0,100,0.00,40.00,17,10,0,0.00
2014-4-23,62,54,46,-100,-100,-100,0,0,100,0.00,40.00,14,6,0,0.00
2014-4-24,71,60,54,-100,-100,-100,0,0,100,0.00,40.00,14,7,0,0.33
2014-4-25,78,61,49,-100,-100,-100,0,0,100,0.00,40.00,16,5,0,0.18
2014-4-26,79,66,57,-100,-100,-100,0,0,100,0.00,40.00,13,4,0,0.00
2014-4-27,77,65,55,-100,-100,-100,0,0,100,0.00,40.00,17,6,0,0.44
2014-4-28,74,64,55,-100,-100,-100,0,0,100,0.00,40.00,15,7,0,0.47
2014-4-29,58,53,50,-100,-100,-100,0,0,100,0.00,40.00,3,2,0,0.04
2014-4-30,55,48,43,-100,-100,-100,0,0,100,0.00,40.00,12,4,0,0.03
2014-5-1,54,49,45,-100,-100,-100,0,0,100,0.00,40.00,7,3,0,0.01
2014-5-2,66,55,48,-100,-100,-100,0,0,100,0.00,40.00,5,2,0,0.00
2014-5-3,75,62,55,-100,-100,-100,0,0,100,0.00,40.00,12,4,0,0.00
2014-5-4,76,62,49,-100,-100,-100,0,0,100,0.00,40.00,9,4,0,0.00
2014-5-5,76,63,51,-100,-100,-100,0,0,100,0.00,40.00,11,5,0,0.00
2014-5-6,79,65,53,-100,-100,-100,0,0,100,0.00,40.00,11,6,0,0.00
2014-5-13,58,56,52,-100,-100,-100,0,0,100,0.00,40.00,11,7,0,0.99
2014-5-14,54,52,48,-100,-100,-100,0,0,100,0.00,40.00,15,8,0,0.01
2014-5-15,58,51,45,-100,-100,-100,0,0,100,0.00,40.00,15,6,0,0.16
2014-5-16,55,48,42,-100,-100,-100,0,0,100,0.00,40.00,15,6,0,0.14
2014-5-17,70,53,41,-100,-100,-100,0,0,100,0.00,40.00,5,2,0,0.00
2014-5-18,68,58,45,-100,-100,-100,0,0,100,0.00,40.00,12,5,0,0.00
2014-5-19,78,64,56,-100,-100,-100,0,0,100,0.00,40.00,15,8,0,0.00
2014-5-20,88,74,64,-100,-100,-100,0,0,100,0.00,40.00,8,3,0,0.00
2014-5-21,88,78,67,-100,-100,-100,0,0,100,0.00,40.00,6,2,0,0.00
2014-5-22,76,67,60,-100,-100,-100,0,0,100,0.00,40.00,15,6,0,0.03
2014-5-23,85,69,57,-100,-100,-100,0,0,100,0.00,40.00,5,2,0,0.02
2014-5-24,74,66,57,-100,-100,-100,0,0,100,0.00,40.00,6,2,0,0.00
2014-5-25,77,68,63,-100,-100,-100,0,0,100,0.00,40.00,9,4,0,0.01
2014-5-26,85,72,65,-100,-100,-100,0,0,100,0.00,40.00,6,2,0,0.26
2014-5-27,85,74,66,-100,-100,-100,0,0,100,0.00,40.00,6,2,0,0.10
2014-5-28,91,76,67,-100,-100,-100,0,0,100,0.00,40.00,7,2,0,0.00
2014-5-29,84,75,68,-100,-100,-100,0,0,100,0.00,40.00,5,2,0,0.00
2014-5-30,82,73,68,-100,-100,-100,0,0,100,0.00,40.00,5,2,0,0.35
2014-5-31,86,74,69,-100,-100,-100,0,0,100,0.00,40.00,7,2,0,0.30
2014-6-1,89,79,69,-100,-100,-100,0,0,100,0.00,40.00,9,4,0,0.30
2014-6-2,89,78,73,-100,-100,-100,0,0,100,0.00,40.00,11,3,0,0.00
2014-6-3,90,80,71,-100,-100,-100,0,0,100,0.00,40.00,10,4,0,0.00
2014-6-4,80,73,66,-100,-100,-100,0,0,100,0.00,40.00,15,6,0,2.51
2014-6-5,80,69,64,-100,-100,-100,0,0,100,0.00,40.00,13,5,0,0.01
2014-6-6,86,73,64,-100,-100,-100,0,0,100,0.00,40.00,4,2,0,0.00
2014-6-7,74,69,66,-100,-100,-100,0,0,100,0.00,40.00,23,7,0,0.58
2014-6-8,75,68,62,-100,-100,-100,0,0,100,0.00,40.00,15,7,0,0.04
2014-6-9,78,70,62,-100,-100,-100,0,0,100,0.00,40.00,8,4,0,0.02
2014-6-10,71,66,62,-100,-100,-100,0,0,100,0.00,40.00,11,5,0,0.24
2014-6-11,74,67,63,-100,-100,-100,0,0,100,0.00,40.00,11,6,0,0.04
2014-6-12,76,68,65,-100,-100,-100,0,0,100,0.00,40.00,16,4,0,0.03
2014-6-13,81,67,60,-100,-100,-100,0,0,100,0.00,40.00,11,4,0,0.01
2014-6-14,79,68,56,-100,-100,-100,0,0,100,0.00,40.00,15,7,0,0.00
2014-6-15,84,76,69,-100,-100,-100,0,0,100,0.00,40.00,12,5,0,0.00
2014-6-16,90,80,69,-100,-100,-100,0,0,100,0.00,40.00,10,4,0,0.05
2014-6-17,89,82,72,-100,-100,-100,0,0,100,0.00,40.00,11,4,0,0.05
2014-6-18,93,84,75,-100,-100,-100,0,0,100,0.00,40.00,5,3,0,0.00
2014-6-19,91,80,72,-100,-100,-100,0,0,100,0.00,40.00,7,3,0,0.88
2014-6-20,89,77,71,-100,-100,-100,0,0,100,0.00,40.00,5,2,0,1.57
2014-6-21,91,76,69,-100,-100,-100,0,0,100,0.00,40.00,7,3,0,0.10
2014-6-22,86,73,68,-100,-100,-100,0,0,100,0.00,40.00,20,4,0,1.13
2014-6-23,85,75,68,-100,-100,-100,0,0,100,0.00,40.00,12,3,0,0.41
2014-6-24,84,75,70,-100,-100,-100,0,0,100,0.00,40.00,11,5,0,0.01
2014-6-25,96,78,68,-100,-100,-100,0,0,100,0.00,40.00,4,2,0,0.00
2014-6-26,87,77,68,-100,-100,-100,0,0,100,0.00,40.00,8,3,0,0.04
2014-6-27,87,77,72,-100,-100,-100,0,0,100,0.00,40.00,13,5,0,0.15
2014-6-28,85,76,73,-100,-100,-100,0,0,100,0.00,40.00,9,5,0,0.70
2014-6-29,88,78,67,-100,-100,-100,0,0,100,0.00,40.00,9,4,0,0.06
2014-6-30,91,84,77,-100,-100,-100,0,0,100,0.00,40.00,12,6,0,0.00
2014-7-1,85,77,72,-100,-100,-100,0,0,100,0.00,40.00,13,4,0,0.01
2014-7-2,72,66,62,-100,-100,-100,0,0,100,0.00,40.00,14,7,0,0.01
2014-7-3,82,67,58,-100,-100,-100,0,0,100,0.00,40.00,12,6,0,0.00
2014-7-4,80,71,62,-100,-100,-100,0,0,100,0.00,40.00,6,3,0,0.00
2014-7-5,77,70,64,-100,-100,-100,0,0,100,0.00,40.00,12,4,0,0.13
2014-7-6,89,77,70,-100,-100,-100,0,0,100,0.00,40.00,8,4,0,0.24
2014-7-7,88,80,74,-100,-100,-100,0,0,100,0.00,40.00,6,2,0,0.01
2014-7-8,81,74,67,-100,-100,-100,0,0,100,0.00,40.00,23,5,0,2.58
2014-7-9,78,73,66,-100,-100,-100,0,0,100,0.00,40.00,12,6,0,0.01
2014-7-10,80,72,63,-100,0,200,0,0,100,0.00,40.00,9,4,0,0.00
2014-7-11,85,76,64,-100,0,200,0,0,100,0.00,40.00,11,5,0,0.00
2014-7-12,92,84,78,-100,0,200,0,0,100,0.00,40.00,6,3,0,0.00
2014-7-13,85,78,74,-100,0,200,0,0,100,0.00,40.00,12,4,0,0.09
2014-7-14,82,75,70,-100,0,200,0,0,100,0.00,40.00,17,7,0,0.01
2014-7-15,70,65,58,-100,0,200,0,0,100,0.00,40.00,18,10,0,0.00
2014-7-16,77,66,58,-100,0,200,0,0,100,0.00,40.00,8,4,0,0.00
2014-7-17,83,69,59,-100,0,200,0,0,100,0.00,40.00,5,2,0,0.00
2014-7-18,82,71,62,-100,0,200,0,0,100,0.00,40.00,11,4,0,0.00
2014-7-19,83,70,62,-100,0,200,0,0,100,0.00,40.00,4,2,0,0.00
2014-7-20,84,74,63,-100,0,200,0,0,100,0.00,40.00,6,2,0,0.00
2014-7-21,88,78,67,-100,0,200,0,0,100,0.00,40.00,8,3,0,0.00
2014-7-22,90,79,73,-100,0,200,0,0,100,0.00,40.00,6,3,0,0.04
2014-7-23,85,79,69,-100,0,200,0,0,100,0.00,40.00,13,8,0,0.01
2014-7-24,84,70,61,-100,0,200,0,0,100,0.00,40.00,5,2,0,0.00
2014-7-25,80,70,64,-100,0,200,0,0,100,0.00,40.00,12,4,0,0.82
2014-7-26,90,78,71,-100,0,200,0,0,100,0.00,40.00,7,3,0,0.01
2014-7-27,85,78,72,-100,0,200,0,0,100,0.00,40.00,17,8,0,0.01
2014-7-28,75,70,64,-100,0,200,0,0,100,0.00,40.00,15,8,0,0.01
2014-7-29,80,68,59,-100,0,200,0,0,100,0.00,40.00,10,4,0,0.00
2014-7-30,84,72,60,-100,0,200,0,0,100,0.00,40.00,6,2,0,0.00
2014-7-31,87,69,62,-100,0,200,0,0,100,0.00,40.00,5,2,0,0.00
2014-8-1,87,72,65,-100,0,200,0,0,100,0.00,40.00,5,2,0,0.01
2014-8-2,91,73,64,-100,0,200,0,0,100,0.00,40.00,5,2,0,0.01
2014-8-3,87,76,65,-100,0,200,0,0,100,0.00,40.00,5,2,0,0.00
2014-8-4,90,76,67,-100,0,200,0,0,100,0.00,40.00,4,2,0,0.00
2014-8-5,84,77,70,-100,0,200,0,0,100,0.00,40.00,9,3,0,0.02
2014-8-6,82,75,69,-100,0,200,0,0,100,0.00,40.00,6,3,0,0.28
2014-8-7,74,72,69,-100,0,200,0,0,100,0.00,40.00,16,6,0,3.47
2014-8-8,73,71,69,-100,0,200,0,0,100,0.00,40.00,7,4,0,0.20
2014-8-9,77,71,69,-100,0,200,0,0,100,0.00,40.00,5,3,0,0.01
2014-8-10,79,74,70,-100,0,200,0,0,100,0.00,40.00,8,3,0,0.01
2014-8-11,82,75,70,-100,0,200,0,0,100,0.00,40.00,14,6,0,0.01
2014-8-12,78,70,63,-100,0,200,0,0,100,0.00,40.00,14,8,0,0.00
2014-8-13,83,70,62,-100,0,200,0,0,100,0.00,40.00,7,3,0,0.00
2014-8-14,90,74,62,-100,0,200,0,0,100,0.00,40.00,4,2,0,0.00
2014-8-15,79,73,67,-100,0,200,0,0,100,0.00,40.00,7,2,0,0.10
2014-8-16,78,72,68,-100,0,200,0,0,100,0.00,40.00,11,5,0,2.40
2014-8-17,77,72,70,-100,0,200,0,0,100,0.00,40.00,11,6,0,1.10
2014-8-18,89,75,70,-100,0,200,0,0,100,0.00,40.00,3,2,0,0.01
2014-8-19,91,77,69,-100,0,200,0,0,100,0.00,40.00,8,2,0,0.02
2014-8-20,90,80,73,-100,0,200,0,0,100,0.00,40.00,7,2,0,0.01
2014-8-21,97,84,77,-100,0,200,0,0,100,0.00,40.00,6,2,0,0.00
2014-8-22,94,82,78,-100,0,200,0,0,100,0.00,40.00,7,2,0,0.00
2014-8-23,94,82,77,-100,0,200,0,0,100,0.00,40.00,9,3,0,0.00
2014-8-24,96,85,75,-100,0,200,0,0,100,0.00,40.00,5,2,0,0.00
2014-8-25,98,86,77,-100,0,200,0,0,100,0.00,40.00,6,2,0,0.00
2014-8-26,94,83,77,-100,0,200,0,0,100,0.00,40.00,12,4,0,0.00
2014-8-27,88,80,73,-100,0,200,0,0,100,0.00,40.00,11,3,0,0.00
2014-8-28,91,80,71,-100,0,200,0,0,100,0.00,40.00,12,3,0,0.00
2014-8-29,90,79,74,-100,0,200,0,0,100,0.00,40.00,9,4,0,0.15
2014-8-30,90,77,72,-100,0,200,0,0,100,0.00,40.00,5,2,0,0.15